Time,TemperatureF,DewpointF,PressureIn,WindDirection,WindDirectionDegrees,WindSpeedMPH,WindSpeedGustMPH,Humidity,HourlyPrecipIn,Conditions,Clouds,dailyrainin,SoftwareType,DateUTC
2013-07-04 00:01:00,74.0,39.0,-100.00,SSW,210,6.0,10.0,29,-99.99,,,0.00,,2013-07-04 06:01:00,
2013-07-04 00:11:00,73.0,40.0,-100.00,SE,140,1.0,6.0,30,-99.99,,,0.00,,2013-07-04 06:11:00,
2013-07-04 00:22:00,73.0,40.0,-100.00,SE,140,1.0,6.0,30,-99.99,,,0.00,,2013-07-04 06:22:00,
2013-07-04 00:34:00,73.0,40.0,-100.00,SE,140,1.0,6.0,30,-99.99,,,0.00,,2013-07-04 06:34:00,
2013-07-04 00:43:00,73.0,40.0,-100.00,SE,140,1.0,6.0,30,-99.99,,,0.00,,2013-07-04 06:43:00,
2013-07-04 00:52:00,74.0,40.0,-100.00,SSW,200,1.0,4.0,29,-99.99,,,0.00,,2013-07-04 06:52:00,
2013-07-04 01:02:00,74.0,40.0,-100.00,SSW,200,1.0,4.0,29,-99.99,,,0.00,,2013-07-04 07:02:00,
2013-07-04 01:12:00,73.0,39.0,-100.00,SSW,210,5.0,8.0,29,-99.99,,,0.00,,2013-07-04 07:12:00,
2013-07-04 01:22:00,73.0,39.0,-100.00,SSW,210,5.0,8.0,29,-99.99,,,0.00,,2013-07-04 07:22:00,
2013-07-04 01:34:00,73.0,39.0,-100.00,SSW,210,5.0,8.0,29,-99.99,,,0.00,,2013-07-04 07:34:00,
2013-07-04 01:43:00,73.0,39.0,-100.00,SSW,210,5.0,8.0,29,-99.99,,,0.00,,2013-07-04 07:43:00,
2013-07-04 01:52:00,72.0,39.0,-100.00,SW,215,4.0,7.0,30,-99.99,,,0.00,,2013-07-04 07:52:00,
2013-07-04 02:02:00,72.0,39.0,-100.00,SW,215,4.0,7.0,30,-99.99,,,0.00,,2013-07-04 08:02:00,
2013-07-04 02:11:00,71.0,39.0,-100.00,NNW,335,3.0,5.0,31,-99.99,,,0.00,,2013-07-04 08:11:00,
2013-07-04 02:22:00,71.0,39.0,-100.00,NNW,335,3.0,5.0,31,-99.99,,,0.00,,2013-07-04 08:22:00,
2013-07-04 02:33:00,71.0,39.0,-100.00,NNW,335,3.0,5.0,31,-99.99,,,0.00,,2013-07-04 08:33:00,
2013-07-04 02:42:00,71.0,39.0,-100.00,NNW,335,3.0,5.0,31,-99.99,,,0.00,,2013-07-04 08:42:00,
2013-07-04 02:52:00,70.0,39.0,-100.00,SW,220,3.0,6.0,32,-99.99,,,0.00,,2013-07-04 08:52:00,
2013-07-04 03:02:00,70.0,39.0,-100.00,SW,220,3.0,6.0,32,-99.99,,,0.00,,2013-07-04 09:02:00,
2013-07-04 03:11:00,69.0,38.0,-100.00,SW,235,2.0,6.0,32,-99.99,,,0.00,,2013-07-04 09:11:00,
2013-07-04 03:22:00,69.0,38.0,-100.00,SW,235,2.0,6.0,32,-99.99,,,0.00,,2013-07-04 09:22:00,
2013-07-04 03:32:00,69.0,38.0,-100.00,SW,235,2.0,6.0,32,-99.99,,,0.00,,2013-07-04 09:32:00,
2013-07-04 03:42:00,69.0,38.0,-100.00,SW,235,2.0,6.0,32,-99.99,,,0.00,,2013-07-04 09:42:00,
2013-07-04 04:11:00,67.0,43.0,-100.00,West,270,3.0,4.0,41,-99.99,,,0.00,,2013-07-04 10:11:00,
2013-07-04 04:22:00,67.0,43.0,-100.00,West,270,3.0,4.0,41,-99.99,,,0.00,,2013-07-04 10:22:00,
2013-07-04 04:34:00,67.0,43.0,-100.00,West,270,3.0,4.0,41,-99.99,,,0.00,,2013-07-04 10:34:00,
2013-07-04 04:42:00,67.0,43.0,-100.00,West,270,3.0,4.0,41,-99.99,,,0.00,,2013-07-04 10:42:00,
2013-07-04 04:53:00,65.0,43.0,-100.00,SSW,205,4.0,7.0,44,-99.99,,,0.00,,2013-07-04 10:53:00,
2013-07-04 05:02:00,65.0,43.0,-100.00,SSW,205,4.0,7.0,44,-99.99,,,0.00,,2013-07-04 11:02:00,
2013-07-04 05:11:00,66.0,44.0,-100.00,SSW,195,3.0,6.0,45,-99.99,,,0.00,,2013-07-04 11:11:00,
2013-07-04 05:22:00,66.0,44.0,-100.00,SSW,195,3.0,6.0,45,-99.99,,,0.00,,2013-07-04 11:22:00,
2013-07-04 05:33:00,66.0,44.0,-100.00,SSW,195,3.0,6.0,45,-99.99,,,0.00,,2013-07-04 11:33:00,
2013-07-04 05:43:00,66.0,44.0,-100.00,SSW,195,3.0,6.0,45,-99.99,,,0.00,,2013-07-04 11:43:00,
2013-07-04 05:53:00,64.0,45.0,-100.00,SSW,210,4.0,5.0,49,-99.99,,,0.00,,2013-07-04 11:53:00,
2013-07-04 06:02:00,64.0,45.0,-100.00,SSW,210,4.0,5.0,49,-99.99,,,0.00,,2013-07-04 12:02:00,
2013-07-04 06:11:00,64.0,44.0,-100.00,SW,225,2.0,6.0,48,-99.99,,,0.00,,2013-07-04 12:11:00,
2013-07-04 06:22:00,64.0,44.0,-100.00,SW,225,2.0,6.0,48,-99.99,,,0.00,,2013-07-04 12:22:00,
2013-07-04 06:33:00,65.0,45.0,-100.00,West,260,2.0,4.0,49,-99.99,,,0.00,,2013-07-04 12:33:00,
2013-07-04 06:43:00,65.0,45.0,-100.00,West,260,2.0,4.0,49,-99.99,,,0.00,,2013-07-04 12:43:00,
2013-07-04 06:52:00,65.0,45.0,-100.00,SSW,200,4.0,8.0,49,-99.99,,,0.00,,2013-07-04 12:52:00,
2013-07-04 07:02:00,65.0,45.0,-100.00,SSW,200,4.0,8.0,49,-99.99,,,0.00,,2013-07-04 13:02:00,
2013-07-04 07:12:00,67.0,45.0,-100.00,SW,235,3.0,5.0,46,-99.99,,,0.00,,2013-07-04 13:12:00,
2013-07-04 07:23:00,67.0,45.0,-100.00,SW,235,3.0,5.0,46,-99.99,,,0.00,,2013-07-04 13:23:00,
2013-07-04 07:33:00,67.0,45.0,-100.00,SW,235,3.0,5.0,46,-99.99,,,0.00,,2013-07-04 13:33:00,
2013-07-04 07:43:00,67.0,45.0,-100.00,SW,235,3.0,5.0,46,-99.99,,,0.00,,2013-07-04 13:43:00,
2013-07-04 07:53:00,68.0,47.0,-100.00,SW,215,2.0,4.0,46,-99.99,,,0.00,,2013-07-04 13:53:00,
2013-07-04 08:02:00,68.0,47.0,-100.00,SW,215,2.0,4.0,46,-99.99,,,0.00,,2013-07-04 14:02:00,
2013-07-04 08:11:00,72.0,49.0,-100.00,NNW,330,3.0,3.0,43,-99.99,,,0.00,,2013-07-04 14:11:00,
2013-07-04 08:22:00,72.0,49.0,-100.00,NNW,330,3.0,3.0,43,-99.99,,,0.00,,2013-07-04 14:22:00,
2013-07-04 08:33:00,72.0,49.0,-100.00,NNW,330,3.0,3.0,43,-99.99,,,0.00,,2013-07-04 14:33:00,
2013-07-04 08:43:00,72.0,49.0,-100.00,NNW,330,3.0,3.0,43,-99.99,,,0.00,,2013-07-04 14:43:00,
2013-07-04 08:53:00,71.0,51.0,-100.00,NE,45,4.0,6.0,48,-99.99,,,0.00,,2013-07-04 14:53:00,
2013-07-04 09:02:00,71.0,51.0,-100.00,NE,45,4.0,6.0,48,-99.99,,,0.00,,2013-07-04 15:02:00,
2013-07-04 09:11:00,73.0,53.0,-100.00,NE,45,1.0,4.0,49,-99.99,,,0.00,,2013-07-04 15:11:00,
2013-07-04 09:23:00,73.0,53.0,-100.00,NE,45,1.0,4.0,49,-99.99,,,0.00,,2013-07-04 15:23:00,
2013-07-04 09:33:00,73.0,53.0,-100.00,NE,45,1.0,4.0,49,-99.99,,,0.00,,2013-07-04 15:33:00,
2013-07-04 09:43:00,73.0,53.0,-100.00,NE,45,1.0,4.0,49,-99.99,,,0.00,,2013-07-04 15:43:00,
2013-07-04 09:52:00,75.0,53.0,-100.00,NW,325,3.0,6.0,46,-99.99,,,0.00,,2013-07-04 15:52:00,
2013-07-04 10:02:00,75.0,53.0,-100.00,NW,325,3.0,6.0,46,-99.99,,,0.00,,2013-07-04 16:02:00,
2013-07-04 10:11:00,77.0,53.0,-100.00,NNW,335,3.0,6.0,44,-99.99,,,0.00,,2013-07-04 16:11:00,
2013-07-04 10:22:00,77.0,53.0,-100.00,NNW,335,3.0,6.0,44,-99.99,,,0.00,,2013-07-04 16:22:00,
2013-07-04 10:33:00,77.0,53.0,-100.00,NNW,335,3.0,6.0,44,-99.99,,,0.00,,2013-07-04 16:33:00,
2013-07-04 10:43:00,77.0,53.0,-100.00,NNW,335,3.0,6.0,44,-99.99,,,0.00,,2013-07-04 16:43:00,
2013-07-04 10:52:00,77.0,54.0,-100.00,NNW,335,4.0,7.0,45,-99.99,,,0.00,,2013-07-04 16:52:00,
2013-07-04 11:01:00,77.0,54.0,-100.00,NNW,335,4.0,7.0,45,-99.99,,,0.00,,2013-07-04 17:01:00,
2013-07-04 11:12:00,78.0,54.0,-100.00,NNE,20,4.0,9.0,44,-99.99,,,0.00,,2013-07-04 17:12:00,
2013-07-04 11:22:00,78.0,54.0,-100.00,NNE,20,4.0,9.0,44,-99.99,,,0.00,,2013-07-04 17:22:00,
2013-07-04 11:34:00,78.0,54.0,-100.00,NNE,20,4.0,9.0,44,-99.99,,,0.00,,2013-07-04 17:34:00,
2013-07-04 11:43:00,78.0,54.0,-100.00,NNE,20,4.0,9.0,44,-99.99,,,0.00,,2013-07-04 17:43:00,
2013-07-04 11:53:00,79.0,53.0,-100.00,NNE,30,4.0,12.0,41,-99.99,,,0.00,,2013-07-04 17:53:00,
2013-07-04 12:01:00,79.0,53.0,-100.00,NNE,30,4.0,12.0,41,-99.99,,,0.00,,2013-07-04 18:01:00,
2013-07-04 12:11:00,80.0,55.0,-100.00,ENE,60,7.0,12.0,42,-99.99,,,0.00,,2013-07-04 18:11:00,
2013-07-04 12:22:00,80.0,55.0,-100.00,ENE,60,7.0,12.0,42,-99.99,,,0.00,,2013-07-04 18:22:00,
2013-07-04 12:33:00,80.0,55.0,-100.00,ENE,60,7.0,12.0,42,-99.99,,,0.00,,2013-07-04 18:33:00,
2013-07-04 12:43:00,80.0,55.0,-100.00,ENE,60,7.0,12.0,42,-99.99,,,0.00,,2013-07-04 18:43:00,
2013-07-04 22:01:00,64.0,49.0,-100.00,SE,140,11.0,14.0,58,-99.99,,,0.00,,2013-07-05 04:01:00,
2013-07-04 22:11:00,65.0,48.0,-100.00,ESE,105,6.0,9.0,54,-99.99,,,0.00,,2013-07-05 04:11:00,
2013-07-04 22:22:00,65.0,48.0,-100.00,ESE,105,6.0,9.0,54,-99.99,,,0.00,,2013-07-05 04:22:00,
2013-07-04 22:33:00,65.0,48.0,-100.00,ESE,105,6.0,9.0,54,-99.99,,,0.00,,2013-07-05 04:33:00,
2013-07-04 22:43:00,65.0,48.0,-100.00,ESE,105,6.0,9.0,54,-99.99,,,0.00,,2013-07-05 04:43:00,
2013-07-04 23:12:00,65.0,48.0,-100.00,South,175,4.0,8.0,54,-99.99,,,0.00,,2013-07-05 05:12:00,
2013-07-04 23:22:00,65.0,48.0,-100.00,South,175,4.0,8.0,54,-99.99,,,0.00,,2013-07-05 05:22:00,
2013-07-04 23:33:00,65.0,48.0,-100.00,South,175,4.0,8.0,54,-99.99,,,0.00,,2013-07-05 05:33:00,
2013-07-04 23:43:00,65.0,48.0,-100.00,South,175,4.0,8.0,54,-99.99,,,0.00,,2013-07-05 05:43:00,
2013-07-04 23:52:00,65.0,46.0,-100.00,South,190,8.0,12.0,50,-99.99,,,0.00,,2013-07-05 05:52:00,